[[{"header":{"parameterUnit":"m.s-1","parameterCategory":1,"la1":30.2991,"la2":30.254,"lo1":-89.0895,"lo2":-89.0444,"dy":0.0017,"dx":0.0017,"nx":28,"ny":28,"refTime":"2024-10-05T21:00:00:Z","depth":0,"parameterNumber":2,"parameterNumberName":"U-component_of_WINDS"},"data":[0,0,0,0,0,0,0,0,0,0,0,0,0,0,0,0,0,0,0,0,0,0,0,0,0,0,0,0,0,0,0,0,0,0,0,0,0,0,0,0,0,0,0,0,0,0,0,0,0,0,0,0,0,0,0,0,0,0,-4.5922,-4.5922,0,-4.5912,-4.5912,-4.5912,-4.5751,-4.5747,-4.5743,-4.5739,-4.573,-4.5733,-4.5737,0,0,0,0,0,0,0,0,0,0,0,0,0,-4.5803,-4.5806,-4.5922,-4.5922,-4.5922,-4.5912,-4.5912,-4.5912,-4.5752,-4.5747,-4.5742,-4.5737,-4.5729,-4.5733,-4.5737,0,0,0,0,0,0,0,0,0,0,0,0,0,-4.583,-4.5807,-4.5922,-4.5841,-4.5833,-4.5912,-4.5912,-4.5912,-4.5753,-4.5747,-4.5741,-4.5735,-4.5727,-4.5732,-4.5738,-4.5893,0,0,-4.5754,-4.5756,0,0,0,0,0,0,0,0,-4.5829,-4.5834,-4.5853,-4.5847,-4.5838,-4.5827,-4.5866,-4.5906,-4.5755,-4.5784,-4.5739,-4.5732,-4.5767,-4.5769,-4.578,-4.5893,-4.5893,-4.5755,-4.5758,-4.576,-4.5762,0,0,0,0,0,0,0,-4.5827,-4.5834,-4.5918,-4.5853,-4.5845,-4.5805,-4.5802,-4.5873,-4.581,-4.5781,-4.5769,-4.577,-4.5762,-4.5776,-4.5779,-4.5892,-4.5754,-4.5759,-4.5762,-4.5764,-4.6133,-4.6139,0,0,0,0,0,0,-4.5836,-4.5834,-4.5918,-4.5918,-4.5818,-4.5812,-4.5809,-4.5837,-4.5809,-4.5798,-4.5775,-4.5763,-4.5769,-4.5773,-4.5778,-4.5959,-4.576,-4.5765,-4.5768,-4.6126,-4.6134,-4.6141,0,0,0,0,0,0,-4.5834,-4.5845,-4.5919,-4.5872,-4.5879,-4.5821,-4.5853,-4.584,-4.5853,-4.5805,-4.5793,-4.5801,-4.5765,-4.577,-4.5866,-4.5956,-4.5767,-4.5772,-4.6118,-4.6129,-4.6138,-4.6322,0,0,0,0,0,0,-4.5832,-4.5846,-4.5904,-4.5875,-4.5882,-4.6007,-4.5859,-4.5844,-4.5863,-4.5846,-4.5825,-4.5816,-4.576,-4.5859,-4.5871,-4.596,-4.5776,-4.611,-4.6123,-4.6134,-4.6308,-4.6337,-4.6362,0,0,0,0,0,-4.5828,-4.5956,-4.5908,-4.5919,-4.5954,-4.6013,-4.6017,-4.595,-4.5871,-4.5929,-4.5898,-4.5817,-4.5944,-4.587,-4.5883,-4.5975,-4.6104,-4.6119,-4.6134,-4.6295,-4.6331,-4.6361,0,0,0,0,0,0,-4.5998,-4.5951,-4.5897,-4.602,-4.6022,-4.5986,-4.6057,-4.599,-4.6014,-4.5998,-4.5914,-4.591,-4.6019,-4.6006,-4.5924,-4.6124,-4.601,-4.6028,-4.6129,-4.6162,-4.6189,-4.619,-4.5781,0,0,0,0,0,-4.605,-4.6102,-4.6058,-4.617,-4.6174,-4.6116,-4.6139,-4.6088,-4.6086,-4.6086,-4.6061,-4.6063,-4.6103,-4.6132,-4.6166,-4.6305,-4.6298,-4.6374,-4.6401,-4.6424,-4.6441,-4.6513,-4.6547,-4.619,-4.619,-4.6189,0,0,-4.6157,-4.6138,-4.6176,-4.6204,-4.6199,-4.6255,-4.6118,-4.6182,-4.6223,-4.6096,-4.6184,-4.6167,-4.6163,-4.6281,-4.6332,-4.6274,-4.6538,-4.6443,-4.6461,-4.6465,-4.6532,-4.6566,-4.6596,-4.62,-4.6198,-4.6196,0,0,-4.6382,-4.6373,-4.6466,-4.6464,-4.6458,-4.6419,-4.6441,-4.6416,-4.6399,-4.6487,-4.6393,-4.644,-4.6511,-4.6512,-4.6522,-4.6748,-4.6675,-4.6762,-4.6904,-4.6976,-4.7004,-4.7029,-4.711,-4.714,-4.6778,-4.6779,-4.6779,0,-4.6516,-4.6596,-4.6522,-4.6593,-4.6608,-4.6496,-4.659,-4.6591,-4.6598,-4.6611,-4.6546,-4.6633,-4.6622,-4.6739,-4.6794,-4.6806,-4.683,-4.6764,-4.7006,-4.703,-4.7052,-4.7128,-4.7159,-4.679,-4.6788,-4.6787,-4.6786,0,-4.6762,-4.6819,-4.6895,-4.6904,-4.6928,-4.701,-4.6949,-4.6982,-4.6928,-4.6896,-4.6987,-4.697,-4.7,-4.7023,-4.6972,-4.7134,-4.7098,-4.7021,-4.6905,-4.7098,-4.7168,-4.7197,-4.6805,-4.6801,-4.6798,-4.6795,0,0,-4.7094,-4.7061,-4.709,-4.7093,-4.7079,-4.7122,-4.7199,-4.7227,-4.7258,-4.7266,-4.7329,-4.7392,-4.7321,-4.7332,-4.728,-4.7343,-4.7524,-4.7257,-4.7256,-4.7308,-4.7702,-4.776,-4.7795,-4.7474,-4.748,-4.7484,-4.7702,0,-4.7312,-4.7442,-4.7377,-4.7515,-4.7567,-4.7461,-4.7528,-4.7527,-4.7499,-4.7539,-4.7507,-4.7554,-4.7456,-4.7462,-4.752,-4.749,-4.7602,-4.7473,-4.7533,-4.7536,-4.7538,-4.7832,-4.7894,-4.8101,-4.7729,-4.7734,-4.7737,0,-4.7582,-4.7602,-4.7746,-4.7722,-4.7742,-4.7804,-4.7825,-4.7864,-4.7861,-4.7836,-4.785,-4.7782,-4.7856,-4.7741,-4.7843,-4.7757,-4.7777,-4.7766,-4.7773,-4.7776,-4.7649,-4.7844,-4.8165,-4.8197,-4.778,-4.7776,-4.7773,0,-4.7811,-4.7874,-4.7967,-4.7973,-4.7948,-4.7994,-4.7986,-4.7976,-4.7997,-4.8016,-4.8029,-4.8056,-4.8072,-4.8094,-4.8036,-4.7958,-4.8146,-4.8026,-4.8128,-4.813,-4.8173,-4.8172,-4.8503,-4.8186,-4.8186,-4.8185,-4.8184,0,-4.8061,-4.8153,-4.807,-4.8128,-4.8228,-4.8153,-4.8254,-4.8234,-4.8227,-4.8279,-4.8189,-4.824,-4.816,-4.8203,-4.8158,-4.825,-4.8257,-4.8239,-4.8227,-4.8248,-4.8251,-4.8261,-4.8245,-4.8193,-4.8191,-4.819,-4.8188,0,-4.8334,-4.8281,-4.8377,-4.8345,-4.834,-4.8415,-4.8388,-4.844,-4.8406,-4.8473,-4.8485,-4.8431,-4.8478,-4.8422,-4.8463,-4.8433,-4.8558,-4.8523,-4.8559,-4.8549,-4.8655,-4.8646,-4.9005,-4.9049,-4.8704,-4.8707,-4.871,0,-4.8497,-4.8565,-4.8541,-4.857,-4.8567,-4.8614,-4.8635,-4.8564,-4.859,-4.8592,-4.8644,-4.8683,-4.871,-4.879,-4.8755,-4.8786,-4.8752,-4.8875,-4.8756,-4.8776,-4.8754,-4.8751,-4.8758,-4.89,-4.8904,-4.8908,-4.891,0,-4.8792,-4.8763,-4.8797,-4.8824,-4.8852,-4.8869,-4.8879,-4.8908,-4.8833,-4.8867,-4.8913,-4.8935,-4.8977,-4.9017,-4.9039,-4.903,-4.8959,-4.8948,-4.8973,-4.8997,-4.9015,-4.9007,-4.8626,-4.894,-4.8937,-4.8935,-4.8933,-4.8932,-4.9015,-4.9071,-4.9063,-4.9105,-4.9105,-4.9117,-4.9165,-4.9136,-4.9174,-4.9203,-4.9158,-4.9217,-4.9211,-4.9233,-4.9233,-4.9278,-4.9224,-4.9261,-4.9271,-4.9281,-4.9298,-4.9008,-4.9281,-4.928,-4.9279,-4.9279,-4.9278,0,-4.9307,-4.9296,-4.9335,-4.9352,-4.9385,-4.9314,-4.9322,-4.9354,-4.9407,-4.9408,-4.9437,-4.9491,-4.9529,-4.9497,-4.9529,-4.9571,-4.9539,-4.9582,-4.9578,-4.9578,-4.9343,-4.9318,-4.9607,-4.9607,-4.9607,-4.9607,-4.9607,-4.9607,-4.9462,-4.9553,-4.9524,-4.9614,-4.9603,-4.9659,-4.967,-4.968,-4.9681,-4.9745,-4.9776,-4.9755,-4.9743,-4.9773,-4.9806,-4.9795,-4.9812,-4.9867,-4.9845,-4.9626,-4.9594,-4.9563,-4.9539,-4.9871,-4.9871,-5.0076,-5.0078,-5.0079]},{"header":{"parameterUnit":"m.s-1","parameterCategory":1,"la1":30.2991,"la2":30.254,"lo1":-89.0895,"lo2":-89.0444,"dy":0.0017,"dx":0.0017,"nx":28,"ny":28,"refTime":"2024-10-05T21:00:00:Z","depth":0,"parameterNumber":3,"parameterNumberName":"V-component_of_WINDS"},"data":[0,0,0,0,0,0,0,0,0,0,0,0,0,0,0,0,0,0,0,0,0,0,0,0,0,0,0,0,0,0,0,0,0,0,0,0,0,0,0,0,0,0,0,0,0,0,0,0,0,0,0,0,0,0,0,0,0,0,-3.278,-3.278,0,-3.2857,-3.2858,-3.2859,-3.2812,-3.281,-3.2808,-3.2806,-3.2884,-3.2889,-3.2893,0,0,0,0,0,0,0,0,0,0,0,0,0,-3.259,-3.2594,-3.2779,-3.278,-3.2781,-3.2857,-3.2858,-3.2859,-3.2813,-3.281,-3.2807,-3.2805,-3.2883,-3.2888,-3.2893,0,0,0,0,0,0,0,0,0,0,0,0,0,-3.2671,-3.2595,-3.2779,-3.2768,-3.2767,-3.2856,-3.2858,-3.2859,-3.2813,-3.281,-3.2807,-3.2804,-3.2881,-3.2888,-3.2894,-3.2998,0,0,-3.2913,-3.2915,0,0,0,0,0,0,0,0,-3.2666,-3.2678,-3.2768,-3.2769,-3.2768,-3.2822,-3.282,-3.2906,-3.2814,-3.2796,-3.2806,-3.2802,-3.2866,-3.2873,-3.2895,-3.3002,-3.3006,-3.2913,-3.2917,-3.292,-3.2921,0,0,0,0,0,0,0,-3.2661,-3.2674,-3.281,-3.277,-3.277,-3.2758,-3.2766,-3.2836,-3.2849,-3.2797,-3.2794,-3.2804,-3.2866,-3.2889,-3.2897,-3.3007,-3.2913,-3.2919,-3.2922,-3.2925,-3.3202,-3.3206,0,0,0,0,0,0,-3.2656,-3.267,-3.2808,-3.2812,-3.2708,-3.2764,-3.2773,-3.2808,-3.2848,-3.2851,-3.2807,-3.2801,-3.288,-3.289,-3.2899,-3.3024,-3.292,-3.2925,-3.2929,-3.3199,-3.3203,-3.3207,0,0,0,0,0,0,-3.2652,-3.2669,-3.2804,-3.274,-3.2757,-3.2771,-3.2811,-3.2811,-3.2835,-3.2855,-3.2857,-3.2829,-3.2878,-3.2891,-3.2974,-3.3026,-3.2928,-3.2934,-3.3194,-3.32,-3.3205,-3.3275,0,0,0,0,0,0,-3.2647,-3.2668,-3.2708,-3.2741,-3.276,-3.2879,-3.2814,-3.2815,-3.2846,-3.284,-3.2876,-3.2879,-3.2876,-3.2965,-3.298,-3.3033,-3.2939,-3.319,-3.3197,-3.3203,-3.3268,-3.3282,-3.3294,0,0,0,0,0,-3.264,-3.2725,-3.2711,-3.2727,-3.2811,-3.2882,-3.2892,-3.2888,-3.285,-3.2891,-3.2903,-3.2878,-3.3018,-3.2974,-3.2991,-3.3046,-3.3186,-3.3195,-3.3203,-3.3262,-3.328,-3.3294,0,0,0,0,0,0,-3.2698,-3.2729,-3.2714,-3.2812,-3.2844,-3.2874,-3.2925,-3.2906,-3.295,-3.2943,-3.2935,-3.2944,-3.3031,-3.3046,-3.2997,-3.3149,-3.3096,-3.3108,-3.3136,-3.3152,-3.3165,-3.316,-3.2944,0,0,0,0,0,-3.2722,-3.2777,-3.2801,-3.2885,-3.2902,-3.2911,-3.2942,-3.2935,-3.2969,-3.2982,-3.3001,-3.3034,-3.3085,-3.312,-3.3168,-3.327,-3.3277,-3.3316,-3.3329,-3.334,-3.3351,-3.3405,-3.3423,-3.3234,-3.3234,-3.3234,0,0,-3.2772,-3.2796,-3.2831,-3.2897,-3.2922,-3.2979,-3.2923,-3.2986,-3.3027,-3.2992,-3.3072,-3.3086,-3.3123,-3.3216,-3.3258,-3.3232,-3.3404,-3.335,-3.3359,-3.3364,-3.3415,-3.3433,-3.3449,-3.3239,-3.3238,-3.3237,0,0,-3.2893,-3.2917,-3.2989,-3.3015,-3.3053,-3.3057,-3.3075,-3.3107,-3.3115,-3.3195,-3.317,-3.3219,-3.3308,-3.3334,-3.336,-3.3489,-3.3467,-3.3505,-3.3573,-3.3627,-3.3641,-3.3655,-3.3701,-3.3717,-3.3515,-3.3515,-3.3515,0,-3.2951,-3.3036,-3.3029,-3.3093,-3.3122,-3.3092,-3.3165,-3.319,-3.3242,-3.3263,-3.3233,-3.3343,-3.3365,-3.3464,-3.3495,-3.3517,-3.3536,-3.3501,-3.364,-3.3653,-3.3665,-3.3709,-3.3726,-3.352,-3.3519,-3.3519,-3.3518,0,-3.3105,-3.3164,-3.3217,-3.3268,-3.3303,-3.3372,-3.3374,-3.3411,-3.3401,-3.3409,-3.349,-3.3516,-3.3568,-3.3591,-3.3582,-3.3688,-3.3671,-3.3641,-3.3587,-3.3688,-3.3729,-3.3746,-3.3526,-3.3524,-3.3523,-3.3522,0,0,-3.3265,-3.331,-3.333,-3.3352,-3.3391,-3.3436,-3.3503,-3.3554,-3.3585,-3.3622,-3.3677,-3.3752,-3.3724,-3.3753,-3.3746,-3.3793,-3.3893,-3.3757,-3.3757,-3.3781,-3.4011,-3.4034,-3.4054,-3.3878,-3.3881,-3.3884,-3.4008,0,-3.3388,-3.3505,-3.35,-3.3609,-3.3663,-3.3634,-3.3691,-3.3721,-3.373,-3.3776,-3.3785,-3.3839,-3.3798,-3.3815,-3.386,-3.3871,-3.3939,-3.3862,-3.3929,-3.3932,-3.3922,-3.4075,-3.41,-3.4216,-3.4024,-3.4027,-3.4029,0,-3.3548,-3.359,-3.3704,-3.3734,-3.3756,-3.3808,-3.3855,-3.39,-3.3932,-3.3935,-3.3967,-3.3952,-3.4018,-3.3963,-3.4054,-3.4002,-3.4028,-3.4038,-3.4042,-3.4049,-3.3987,-3.4086,-3.4253,-3.4271,-3.4054,-3.4052,-3.405,0,-3.3654,-3.3738,-3.3817,-3.3837,-3.3874,-3.3911,-3.3928,-3.3957,-3.3988,-3.4028,-3.4048,-3.4096,-3.4122,-3.4158,-3.4157,-3.4116,-3.4249,-3.4193,-3.4253,-3.4253,-3.4283,-3.4282,-3.4457,-3.43,-3.4299,-3.4299,-3.4299,0,-3.3793,-3.3864,-3.3865,-3.3914,-3.3992,-3.3985,-3.4062,-3.4075,-3.4101,-3.4152,-3.4129,-3.4177,-3.4171,-3.4219,-3.4218,-3.4294,-3.4305,-3.4309,-3.4308,-3.4312,-3.4311,-3.433,-3.4322,-3.4304,-3.4303,-3.4302,-3.4301,0,-3.3925,-3.3929,-3.4013,-3.404,-3.4049,-3.4105,-3.4129,-3.4174,-3.418,-3.4244,-3.4259,-3.4268,-3.4323,-3.4325,-3.4388,-3.4387,-3.4479,-3.4468,-3.4468,-3.4466,-3.4526,-3.4521,-3.472,-3.4746,-3.4572,-3.4573,-3.4575,0,-3.4013,-3.4067,-3.41,-3.4132,-3.4152,-3.4204,-3.4235,-3.4229,-3.4263,-3.4303,-3.4344,-3.4396,-3.4438,-3.4527,-3.4539,-3.4587,-3.4578,-3.4644,-3.4585,-3.4587,-3.4579,-3.4576,-3.4582,-3.4656,-3.4658,-3.466,-3.4661,0,-3.417,-3.4169,-3.4215,-3.4262,-3.43,-3.4337,-3.437,-3.4398,-3.4396,-3.4434,-3.449,-3.4522,-3.4586,-3.4639,-3.4685,-3.4701,-3.4682,-3.468,-3.4696,-3.4701,-3.4698,-3.4701,-3.45,-3.4675,-3.4674,-3.4673,-3.4672,-3.4672,-3.4283,-3.433,-3.436,-3.4412,-3.4437,-3.4468,-3.4513,-3.4524,-3.457,-3.4622,-3.4615,-3.4677,-3.4707,-3.4767,-3.4787,-3.4835,-3.4812,-3.4836,-3.4842,-3.4849,-3.4855,-3.469,-3.4844,-3.4843,-3.4843,-3.4843,-3.4842,0,-3.4439,-3.4457,-3.4505,-3.4553,-3.4593,-3.457,-3.4606,-3.4641,-3.4696,-3.4726,-3.4767,-3.4831,-3.4881,-3.4897,-3.4945,-3.4981,-3.4973,-3.4994,-3.4992,-3.4996,-3.4873,-3.4854,-3.5,-3.4999,-3.4999,-3.4999,-3.4999,-3.4999,-3.4525,-3.4602,-3.4605,-3.4693,-3.471,-3.4771,-3.4793,-3.4822,-3.4846,-3.4918,-3.4959,-3.4969,-3.4993,-3.5043,-3.5088,-3.5091,-3.511,-3.5135,-3.5135,-3.502,-3.5004,-3.4989,-3.4972,-3.5139,-3.514,-3.5254,-3.5255,-3.5256]}]]